Location: Detroit
(42.3310°N, 83.0460°W)
Time: 19:47:58
(UTC-04:00)

Hubble Space Telescope - Visible Passes

Search period start: 12 April 2024 00:00
Search period end: 22 April 2024 00:00
Orbit: 514 x 517 km, 28.5° (Epoch: 12 April)

Date Brightness Start Highest point End Pass type
(mag) Time Alt. Az. Time Alt. Az. Time Alt. Az.
13 Apr 3.0 21:40:38 10° SSW 21:41:39 11° S 21:41:39 11° S visible
14 Apr 3.0 21:22:36 10° SSW 21:23:41 11° S 21:24:44 10° SSE visible
15 Apr 3.0 21:04:37 10° SSW 21:05:36 11° S 21:06:35 10° S visible
16 Apr 3.1 20:46:43 10° SSW 20:47:30 10° S 20:48:17 10° S visible
